TimeCDT,TemperatureF,Dew PointF,Humidity,Sea Level PressureIn,VisibilityMPH,Wind Direction,Wind SpeedMPH,Gust SpeedMPH,PrecipitationIn,Events,Conditions,WindDirDegrees,DateUTC
12:15 AM,48.2,46.4,93,30.11,10.0,Calm,Calm,-,N/A,,Overcast,0,2013-04-17 05:15:00
12:35 AM,48.2,46.4,93,30.12,10.0,Calm,Calm,-,N/A,,Overcast,0,2013-04-17 05:35:00
12:55 AM,48.2,46.4,93,30.11,10.0,Calm,Calm,-,N/A,,Overcast,0,2013-04-17 05:55:00
1:15 AM,48.2,46.4,93,30.11,10.0,Calm,Calm,-,N/A,,Overcast,0,2013-04-17 06:15:00
1:35 AM,48.2,46.4,93,30.10,10.0,East,3.5,-,N/A,,Overcast,100,2013-04-17 06:35:00
1:55 AM,48.2,46.4,93,30.09,10.0,ESE,3.5,-,N/A,,Overcast,120,2013-04-17 06:55:00
2:15 AM,48.2,46.4,93,30.09,10.0,SE,3.5,-,N/A,,Overcast,130,2013-04-17 07:15:00
2:35 AM,48.2,46.4,93,30.10,7.0,East,3.5,-,N/A,,Overcast,100,2013-04-17 07:35:00
2:55 AM,48.2,46.4,93,30.10,7.0,Calm,Calm,-,N/A,,Overcast,0,2013-04-17 07:55:00
3:15 AM,48.2,48.2,100,30.09,6.0,Calm,Calm,-,N/A,,Overcast,0,2013-04-17 08:15:00
3:35 AM,48.2,48.2,100,30.09,6.0,East,3.5,-,N/A,,Overcast,80,2013-04-17 08:35:00
3:55 AM,48.2,48.2,100,30.09,4.0,Calm,Calm,-,N/A,,Overcast,0,2013-04-17 08:55:00
4:35 AM,48.2,48.2,100,30.07,2.0,Calm,Calm,-,N/A,,Overcast,0,2013-04-17 09:35:00
4:55 AM,48.2,48.2,100,30.06,2.0,SE,4.6,-,N/A,,Overcast,130,2013-04-17 09:55:00
5:15 AM,48.2,48.2,100,30.06,2.0,SE,3.5,-,N/A,,Overcast,130,2013-04-17 10:15:00
5:35 AM,48.2,48.2,100,30.05,2.0,SE,6.9,-,N/A,,Overcast,140,2013-04-17 10:35:00
5:55 AM,48.2,48.2,100,30.04,1.5,SE,3.5,-,N/A,,Overcast,140,2013-04-17 10:55:00
6:15 AM,48.2,48.2,100,30.03,3.0,SE,5.8,-,N/A,,Overcast,130,2013-04-17 11:15:00
6:35 AM,48.2,48.2,100,30.04,3.0,SE,3.5,-,N/A,,Overcast,130,2013-04-17 11:35:00
6:55 AM,48.2,48.2,100,30.04,2.5,ESE,4.6,-,N/A,,Overcast,120,2013-04-17 11:55:00
7:15 AM,50.0,50.0,100,30.04,2.5,Calm,Calm,-,N/A,,Overcast,0,2013-04-17 12:15:00
7:35 AM,50.0,50.0,100,30.05,1.5,SE,5.8,-,N/A,,Overcast,130,2013-04-17 12:35:00
7:55 AM,50.0,50.0,100,30.04,1.2,SE,5.8,-,N/A,,Overcast,130,2013-04-17 12:55:00
8:15 AM,50.0,50.0,100,30.05,1.2,SE,5.8,-,N/A,,Overcast,130,2013-04-17 13:15:00
8:35 AM,50.0,50.0,100,30.04,1.0,SE,9.2,-,N/A,,Overcast,130,2013-04-17 13:35:00
8:55 AM,50.0,50.0,100,30.02,0.8,ESE,6.9,-,N/A,,Overcast,120,2013-04-17 13:55:00
9:15 AM,50.0,50.0,100,30.03,0.8,SE,4.6,-,N/A,,Overcast,130,2013-04-17 14:15:00
9:35 AM,51.8,51.8,100,30.02,1.0,SE,9.2,-,N/A,,Overcast,130,2013-04-17 14:35:00
9:55 AM,53.6,53.6,100,30.01,1.8,SE,9.2,-,N/A,,Overcast,140,2013-04-17 14:55:00
10:15 AM,53.6,53.6,100,30.00,2.0,SE,10.4,-,N/A,,Overcast,140,2013-04-17 15:15:00
10:35 AM,55.4,55.4,100,29.99,2.5,SE,9.2,-,N/A,,Overcast,140,2013-04-17 15:35:00
10:55 AM,57.2,57.2,100,29.98,3.0,SE,9.2,-,N/A,,Overcast,140,2013-04-17 15:55:00
11:15 AM,59.0,59.0,100,29.97,3.0,SE,9.2,-,N/A,,Mostly Cloudy,140,2013-04-17 16:15:00
11:35 AM,60.8,59.0,94,29.96,4.0,SE,11.5,-,N/A,,Mostly Cloudy,140,2013-04-17 16:35:00
11:55 AM,64.4,62.6,94,29.95,5.0,SE,11.5,-,N/A,,Mostly Cloudy,140,2013-04-17 16:55:00
12:15 PM,66.2,62.6,88,29.94,5.0,SE,9.2,-,N/A,,Mostly Cloudy,140,2013-04-17 17:15:00
12:35 PM,68.0,64.4,88,29.93,6.0,SE,11.5,-,N/A,,Mostly Cloudy,140,2013-04-17 17:35:00
12:55 PM,68.0,64.4,88,29.92,7.0,South,9.2,-,N/A,,Partly Cloudy,170,2013-04-17 17:55:00
1:15 PM,71.6,64.4,78,29.90,7.0,SE,9.2,-,N/A,,Partly Cloudy,140,2013-04-17 18:15:00
1:35 PM,73.4,66.2,78,29.89,8.0,SSE,11.5,-,N/A,,Clear,150,2013-04-17 18:35:00
1:55 PM,75.2,66.2,73,29.88,9.0,SE,11.5,-,N/A,,Partly Cloudy,140,2013-04-17 18:55:00
2:15 PM,77.0,68.0,74,29.86,9.0,SSE,12.7,-,N/A,,Partly Cloudy,150,2013-04-17 19:15:00
2:35 PM,78.8,68.0,69,29.85,10.0,SE,8.1,-,N/A,,Partly Cloudy,140,2013-04-17 19:35:00
2:55 PM,80.6,68.0,65,29.83,10.0,SE,9.2,-,N/A,,Partly Cloudy,140,2013-04-17 19:55:00
3:35 PM,84.2,66.2,55,29.79,10.0,South,12.7,20.7,N/A,,Partly Cloudy,190,2013-04-17 20:35:00
4:15 PM,84.2,66.2,55,29.76,10.0,SSE,18.4,26.5,N/A,,Partly Cloudy,150,2013-04-17 21:15:00
4:35 PM,84.2,64.4,51,29.75,10.0,SSE,21.9,25.3,N/A,,Partly Cloudy,160,2013-04-17 21:35:00
4:55 PM,84.2,64.4,51,29.75,10.0,SSE,18.4,27.6,N/A,,Scattered Clouds,160,2013-04-17 21:55:00
5:15 PM,82.4,64.4,54,29.74,10.0,SSE,15.0,-,N/A,,Scattered Clouds,150,2013-04-17 22:15:00
5:35 PM,82.4,64.4,54,29.74,10.0,SSE,13.8,-,N/A,,Mostly Cloudy,160,2013-04-17 22:35:00
5:55 PM,82.4,66.2,58,29.72,10.0,SE,12.7,16.1,N/A,,Mostly Cloudy,140,2013-04-17 22:55:00
6:15 PM,80.6,64.4,58,29.72,10.0,SSE,13.8,-,N/A,,Scattered Clouds,150,2013-04-17 23:15:00
6:35 PM,80.6,64.4,58,29.70,10.0,SSE,16.1,20.7,N/A,,Scattered Clouds,150,2013-04-17 23:35:00
6:55 PM,80.6,62.6,54,29.69,10.0,SSE,17.3,-,N/A,,Clear,150,2013-04-17 23:55:00
7:15 PM,80.6,60.8,51,29.68,10.0,SSE,20.7,26.5,N/A,,Clear,160,2013-04-18 00:15:00
7:35 PM,80.6,62.6,54,29.68,10.0,SSE,17.3,23.0,N/A,,Clear,160,2013-04-18 00:35:00
7:55 PM,80.6,62.6,54,29.69,10.0,SSE,16.1,26.5,N/A,,Clear,160,2013-04-18 00:55:00
8:15 PM,78.8,62.6,57,29.68,10.0,SSE,12.7,-,N/A,,Clear,150,2013-04-18 01:15:00
8:35 PM,77.0,62.6,61,29.68,10.0,SE,10.4,-,N/A,,Clear,140,2013-04-18 01:35:00
8:55 PM,75.2,62.6,65,29.68,10.0,SE,10.4,-,N/A,,Scattered Clouds,140,2013-04-18 01:55:00
9:15 PM,77.0,62.6,61,29.68,10.0,SSE,16.1,20.7,N/A,,Mostly Cloudy,160,2013-04-18 02:15:00
9:55 PM,77.0,64.4,65,29.68,10.0,SSE,20.7,-,N/A,,Overcast,160,2013-04-18 02:55:00
10:15 PM,77.0,64.4,65,29.67,10.0,South,24.2,-,N/A,,Overcast,170,2013-04-18 03:15:00
10:35 PM,77.0,64.4,65,29.67,10.0,South,16.1,28.8,N/A,,Mostly Cloudy,170,2013-04-18 03:35:00
10:55 PM,75.2,64.4,69,29.67,10.0,SSE,15.0,-,N/A,,Mostly Cloudy,160,2013-04-18 03:55:00
11:15 PM,75.2,64.4,69,29.67,10.0,South,18.4,25.3,N/A,,Mostly Cloudy,180,2013-04-18 04:15:00
11:35 PM,75.2,64.4,69,29.66,10.0,South,23.0,29.9,N/A,,Scattered Clouds,170,2013-04-18 04:35:00
11:55 PM,75.2,64.4,69,29.64,10.0,South,24.2,34.5,N/A,,Scattered Clouds,170,2013-04-18 04:55:00